MST,Max TemperatureF,Mean TemperatureF,Min TemperatureF,Max Dew PointF,MeanDew PointF,Min DewpointF,Max Humidity, Mean Humidity, Min Humidity, Max Sea Level PressureIn, Mean Sea Level PressureIn, Min Sea Level PressureIn, Max VisibilityMiles, Mean VisibilityMiles, Min VisibilityMiles, Max Wind SpeedMPH, Mean Wind SpeedMPH, Max Gust SpeedMPH,PrecipitationIn, CloudCover, Events, WindDirDegrees
2014-4-1,59,52,44,29,16,-1,49,28,11,29.79,29.75,29.72,10,10,10,31,14,45,0.00,1,,185
2014-4-2,51,42,33,29,23,13,82,51,23,29.88,29.77,29.69,10,10,10,29,10,37,T,5,,229
2014-4-3,57,41,25,26,18,8,85,46,15,30.06,29.99,29.89,10,10,10,14,6,17,0.00,1,,249
2014-4-4,62,47,32,19,12,2,51,28,9,29.99,29.87,29.76,10,10,10,20,7,27,0.00,0,,202
2014-4-5,59,48,37,24,16,9,45,30,17,29.96,29.80,29.73,10,10,10,22,8,26,0.00,4,,239
2014-4-6,65,50,34,22,17,6,56,31,10,30.00,29.95,29.91,10,10,10,24,11,32,0.00,0,,320
2014-4-7,74,55,36,22,17,8,52,25,9,30.14,30.08,30.01,10,10,10,13,4,16,0.00,0,,280
2014-4-8,79,59,38,20,15,11,40,21,8,30.17,30.10,30.04,10,10,10,15,6,20,0.00,0,,220
2014-4-9,80,62,44,20,10,-4,37,17,4,30.09,30.01,29.95,10,10,10,20,8,25,0.00,0,,229
2014-4-10,80,62,44,17,6,-5,26,12,4,30.09,29.94,29.89,10,10,10,25,10,33,0.00,0,,212
2014-4-11,78,63,48,25,15,5,34,17,7,30.05,29.87,29.76,10,10,10,21,9,27,0.00,1,,198
2014-4-12,72,59,46,21,14,10,32,17,10,29.82,29.69,29.63,10,10,10,24,11,31,0.00,0,,194
2014-4-13,72,60,48,27,16,-7,26,19,19,29.91,29.74,29.68,10,10,10,31,15,40,0.00,1,,252
2014-4-14,68,51,33,13,8,5,29,18,8,30.10,30.03,29.93,10,10,10,18,7,23,0.00,0,,349
2014-4-15,73,53,33,10,6,0,38,17,7,30.04,29.90,29.79,10,10,10,16,5,20,0.00,0,,216
2014-4-16,77,57,37,24,12,6,40,18,7,29.81,29.75,29.69,10,10,10,22,8,34,0.00,0,,223
2014-4-17,78,60,41,25,20,16,45,23,10,29.88,29.84,29.80,10,10,10,20,7,24,0.00,0,,189
2014-4-18,67,57,47,45,31,20,86,44,22,29.92,29.87,29.79,10,10,10,24,9,31,0.01,3,Rain,179
2014-4-19,70,55,39,42,34,27,92,46,24,30.08,29.95,29.90,10,10,10,23,8,29,0.00,2,Thunderstorm,207
2014-4-20,77,60,43,40,34,27,65,39,17,30.04,29.99,29.94,10,10,10,16,6,27,T,2,,213
2014-4-21,80,64,47,37,32,28,61,33,18,30.04,29.97,29.88,10,10,10,15,7,20,0.00,1,,197
2014-4-22,76,63,49,31,27,17,41,26,15,29.88,29.76,29.66,10,10,10,31,12,42,0.00,0,,200
2014-4-23,71,56,40,22,12,6,40,21,8,29.87,29.76,29.67,10,10,10,21,8,28,0.00,0,,283
2014-4-24,75,56,37,17,12,7,34,19,8,29.94,29.89,29.84,10,10,10,20,7,26,0.00,0,,203
2014-4-25,72,58,43,30,21,11,37,24,15,29.82,29.73,29.56,10,10,10,25,12,36,0.00,0,,188
2014-4-26,58,47,35,37,32,26,85,64,30,29.81,29.65,29.49,10,7,2,35,17,44,0.28,6,Rain-Snow,227
2014-4-27,63,51,39,27,23,18,59,35,19,29.85,29.81,29.78,10,10,10,21,9,27,0.00,1,,232
2014-4-28,70,57,43,26,19,6,45,24,9,30.02,29.90,29.82,10,10,10,24,12,36,0.00,0,,344
2014-4-29,67,52,36,18,7,-2,44,20,7,30.11,30.06,30.02,10,10,10,28,11,35,0.00,0,,12
2014-4-30,68,54,39,12,9,5,27,18,10,30.09,30.04,29.95,10,10,10,26,14,41,0.00,0,,29